CZ-6A DEB

Satellite information

Favourite Embed

Satellite Type and Status

DEBRISIN ORBIT

Key statistics

Satellite CZ-6A DEB at a glance.

Uptime

910

Days in orbit

Revolutions

≈ 14.1

Per day

Orbit

SSO

Sun Synchronous Orbit

Inclination

98.8

Latest

Satellite identification and parameters

Extended collection of information and parameters for CZ-6A DEB.

Object identification

Identified? True

Debris? True

Object name: CZ-6A DEB

International designator: 2022-151ACS

Object number (NORAD): 56274

Object ID (CCSDS): 56274

Country: PEOPLES REPUBLIC OF CHINA (PRC)

Current information (Y/N): Y

RCS size: SMALL

Orbital parameters

Period: 102.428 minutes

Inclination: 98.8461 deg

SMA: 7251.701 km

Apoapsis: 919.739 km

Periapsis: 827.393 km

RAAN: 126.3745 deg

Eccentricy: 0.0063672

Argument of periapsis: 63.6035 deg

Mean anomaly: 297.165 deg

Mean motion: 14.05862658 rev/day

Mean motion (dot): -0.00000037 rev/day2

B* drag term: 0.0000034457 1/REarth

Two-line elements (TLE)

Creation date: May 9, 2025, 2:46 a.m.

Reference frame: TEME

Reference center: EARTH

Epoch: May 8, 2025, 11:12 a.m. UTC

TLE line 0: 0 CZ-6A DEB

TLE line 1: 1 56274U 22151ACS 25128.46676946 -.00000037 00000-0 34457-5 0 9990

TLE line 2: 2 56274 98.8461 126.3745 0063672 63.6035 297.1650 14.05862658109596

Live tracking on map

Real-time ground track for satellite CZ-6A DEB.

In-orbit conjunctions

A list of the most updated potential collisions computed for object CZ-6A DEB.

Target Orbit TCA Probability of collision Miss distance Type
COSMOS 1275 DEB LEO 2025-01-30 15:47:58 0.0001752219 388.0 (m) DEBRIS
CZ-6A DEB SSO 2024-06-28 06:53:10 0.0001009905 359.0 (m) DEBRIS

Associated space launch

Chinese satellite reported for atmospheric/ocean/environmental/spatial parameter research purposes, details TBD.

CZ-6A DEB was lifted into orbit during the mission ‘Long March 6A | Yunhai 3’, on board a Long March 6A space rocket.

The launch took place on Nov. 11, 2022, 10:52 p.m. from Launch Complex 9A.

For more information about the launch, click the button.

Launch to space Long March 6A | Yunhai 3
Long March 6A | Yunhai 3

Agency: N/A

Status: Launch Successful

Launch date: Nov. 11, 2022, 10:52 p.m. UTC

Rocket: Long March 6A

Launch pad: Launch Complex 9A

Location: Taiyuan Satellite Launch Center, People's Republic of China

...

Latest news about this satellite

There are no fresh news available about this satellite. Check back as we update our databases every day.


Newsletter sign-up

Weekly statistics, charts and insights to help you stay on top of the space industry.